Find SRMSAT

NORAD ID: 37841 Int'l Des: 2011-058 Owner: SRMU Country: IN operational
LEOCIRCULAR

Current View

Loading 3D Globe...

About SRMSAT

Description loading...

Upcoming Passes

Passes for default location (London). Set your location on the main map for personalized predictions.

Altitude History

Loading altitude history...

Two-Line Element Set

1 37841U 11058D 26149.43222137 .00000403 00000-0 74886-4 0 9998
2 37841 19.9700 172.9909 0011766 358.8396 139.4248 14.11571196755162
Epoch: May 29, 2026 • Age: 19 hours

Current Status

Altitude 855.0 km
Velocity 7.43 km/s
Sub-Earth Point -19.32°S, 120.74°E
Launch Date Oct 12, 2011
Age 14.6 years
Type other

Technical Details

Classification Payload
Mass 10.00 kg
Dry Mass 10.00 kg
Total Mass 10.00 kg
Length 0.30 m
Diameter 0.30 m
Span 0.30 m
Shape Box
Manufacturer SRMU
Bus Type SRMSAT
Phase Status In Orbit
Owner/State SRMU/IN

Most Searched